Wind_Speed
21 23 24 24 24 21 15 12 12 12 13 18 20 20 20 19 16 13 13 13 17 23 22 19 13 10 6 6 12 8 9 19 13 11 14 13 13 12 11 9 8 8 7 3 6
20 22 24 25 27 25 20 14 12 13 14 16 20 23 22 22 21 17 13 15 16 20 23 22 16 13 9 10 12 7 7 8 18 15 13 13 9 10 11 9 10 10 9 5 6
22 24 26 28 29 28 25 20 15 15 16 16 20 24 25 24 24 19 18 16 18 20 23 22 18 15 11 12 10 8 2 11 20 16 13 12 13 11 11 10 8 8 10 8 6
24 26 29 31 31 29 25 20 17 17 18 18 20 24 26 28 29 23 22 19 18 19 24 24 22 18 15 12 10 7 5 19 20 12 13 15 14 12 10 11 11 7 7 10 8
25 28 31 32 32 30 27 23 18 19 21 21 22 25 29 29 27 27 25 22 19 21 26 26 24 22 18 14 11 9 15 9 14 10 9 11 10 13 12 12 12 11 8 9 9
28 32 33 33 35 34 30 24 21 20 23 25 25 26 30 33 28 29 28 26 24 25 27 29 28 26 22 19 16 15 15 14 9 10 12 16 13 14 21 14 15 13 10 9 9
32 35 36 37 36 35 32 26 23 23 26 29 29 29 30 29 30 32 31 30 28 27 29 30 29 27 25 22 19 20 18 14 10 10 9 4 11 19 17 16 17 14 12 10 11
35 37 38 39 39 36 32 28 27 27 30 32 33 33 33 29 31 32 34 33 31 30 30 30 30 28 27 26 23 20 17 14 10 8 7 9 12 20 17 15 17 16 14 11 9
37 40 41 39 37 35 32 30 30 31 32 33 33 33 32 30 33 32 35 35 33 32 30 28 30 28 26 23 24 22 14 16 13 11 9 5 8 11 25 16 19 18 15 12 10
40 40 41 38 35 34 33 32 31 30 29 29 27 27 29 30 30 31 34 34 33 31 32 33 31 29 27 28 22 19 15 14 15 16 12 6 7 11 19 19 16 19 17 15 12
40 40 38 35 35 35 33 31 27 24 23 25 26 29 28 31 29 30 32 35 35 32 33 33 33 31 27 25 25 25 22 23 28 20 16 10 11 14 12 15 18 14 14 16 14
40 38 37 35 36 34 29 23 20 19 20 22 22 22 27 27 29 29 31 34 35 32 32 36 35 29 29 28 33 29 23 17 7 12 17 12 10 17 13 15 16 28 21 18 15
39 37 36 34 31 26 19 15 15 15 14 16 17 20 24 27 27 28 30 33 33 35 33 30 29 32 36 39 33 22 12 28 22 19 19 16 14 8 10 7 5 7 17 16 20
37 35 33 28 21 16 13 11 10 9 6 10 13 18 22 25 26 29 30 30 31 33 34 31 29 37 36 30 30 22 29 32 23 23 20 17 13 15 11 10 10 10 15 9 23
36 31 27 19 14 12 9 7 3 2 5 8 9 14 20 19 24 27 29 30 29 31 35 32 32 39 33 33 33 29 31 29 12 17 14 18 17 16 13 12 13 9 11 8 9
31 27 19 14 12 10 3 3 3 3 5 6 7 11 17 20 20 27 26 28 30 30 31 24 36 35 32 35 38 32 29 34 22 15 16 14 12 16 5 3 13 10 3 11 15
28 22 14 12 8 2 2 4 6 6 4 1 3 8 8 12 16 22 25 27 27 29 34 36 35 36 38 39 39 44 33 19 20 17 17 14 16 25 12 8 1 7 14 1 1
26 18 14 8 4 5 5 4 7 1 1 7 7 12 14 10 12 19 23 23 21 22 19 21 30 37 36 35 31 34 31 23 16 14 15 26 23 21 24 14 11 5 4 6 4
22 17 11 5 2 4 5 5 8 4 5 5 15 14 14 19 11 13 17 18 25 24 17 19 16 23 32 36 38 33 36 28 22 27 17 21 19 25 34 23 20 16 12 11 9
18 12 7 4 6 3 5 7 8 6 11 12 13 18 9 7 9 12 15 16 22 32 31 21 21 24 23 35 38 32 23 33 29 16 19 23 22 18 19 31 25 20 21 20 17
14 7 3 6 4 13 13 7 3 7 13 5 12 7 18 14 14 11 10 19 23 29 29 18 19 17 22 32 28 37 37 30 25 25 21 20 18 23 19 23 25 19 21 21 21
9 3 7 7 7 11 5 5 5 3 6 12 15 14 4 14 7 9 10 15 21 24 26 26 20 10 14 16 25 22 30 30 26 25 26 23 33 27 13 14 23 21 17 20 19
4 5 10 8 14 5 6 5 8 5 11 7 8 12 14 11 17 14 23 21 17 19 22 24 23 18 17 18 27 32 21 21 24 21 22 20 28 29 25 16 20 25 21 16 17
1 8 12 9 17 7 6 2 2 7 9 13 12 10 6 7 10 18 8 21 16 19 22 24 26 27 26 24 19 22 26 25 26 25 22 21 29 33 36 32 25 26 28 19 17
4 11 15 10 11 12 8 5 2 2 3 7 10 12 14 6 7 12 9 14 15 17 19 26 26 32 19 20 30 22 20 24 25 26 26 22 30 21 20 33 34 31 30 25 23
7 11 17 15 13 10 7 6 5 3 4 3 5 8 11 11 15 11 13 15 10 19 20 22 30 34 39 12 22 24 16 22 23 23 26 25 23 38 28 32 33 33 31 27 24
8 11 14 15 13 8 8 10 8 6 6 6 5 7 10 6 9 7 8 12 23 20 15 22 17 19 25 25 27 25 29 25 23 23 30 28 37 29 36 29 28 28 31 31 28
Wind_Direction
1 1 360 359 359 354 343 327 311 293 260 249 241 237 237 240 242 244 231 217 216 223 220 221 204 213 168 165 188 163 181 155 169 171 154 148 151 159 157 158 149 137 128 174 145
346 349 351 350 351 349 346 329 307 290 277 253 242 237 235 233 234 236 232 218 211 219 222 218 207 207 178 152 151 139 186 255 186 185 184 167 160 164 164 165 160 155 135 148 163
338 341 341 340 345 343 341 330 311 290 276 261 248 237 235 233 229 223 224 224 212 213 221 215 209 199 195 178 176 175 168 263 204 188 187 200 173 165 164 164 179 175 150 143 160
334 333 331 333 334 336 335 328 310 288 276 266 253 243 234 232 230 219 220 219 213 210 214 208 205 198 193 184 183 176 99 158 167 193 188 193 182 175 169 176 176 183 179 150 149
327 328 328 330 330 331 329 321 302 278 269 263 253 242 236 232 227 223 216 213 207 204 208 207 202 195 192 182 180 171 139 138 169 191 192 198 190 188 181 184 178 174 188 177 153
328 328 328 330 331 329 325 313 297 275 265 260 251 242 237 233 222 220 215 209 202 200 204 207 203 197 194 182 181 173 168 166 175 184 218 216 208 220 215 197 187 181 184 183 162
327 329 329 330 329 327 321 307 291 277 263 255 247 239 236 236 227 218 214 210 200 199 201 206 208 194 191 189 188 181 186 177 167 193 211 233 223 220 211 189 191 187 181 191 166
327 327 329 331 328 324 315 302 287 273 261 251 242 234 234 226 224 218 214 211 204 197 198 205 207 201 195 193 193 193 197 194 212 203 204 227 241 235 194 193 193 186 180 191 176
326 326 329 331 326 317 307 296 281 270 258 249 240 233 229 224 219 214 213 212 207 198 195 202 207 196 197 197 195 200 209 202 228 218 204 239 183 175 192 187 190 182 183 191 187
328 329 330 328 319 308 300 290 281 272 262 254 248 239 229 225 221 213 210 210 211 201 193 194 205 204 194 196 189 203 210 226 225 216 217 198 200 151 158 187 194 182 184 183 198
330 332 330 323 310 303 296 289 282 270 260 249 242 234 229 221 217 215 209 206 207 205 195 193 200 203 193 194 216 197 194 207 217 212 223 224 229 181 201 218 200 180 185 190 193
333 333 327 317 307 302 299 290 274 265 253 245 238 229 220 210 210 210 208 205 204 205 205 195 194 195 194 201 203 200 213 213 162 196 208 222 238 199 217 211 215 199 212 198 186
336 332 324 317 311 310 300 281 271 264 257 244 233 221 215 207 203 201 205 204 202 202 205 202 196 197 203 201 196 204 190 224 225 226 224 226 244 234 224 206 208 158 179 188 196
337 334 329 322 322 317 300 290 287 280 259 235 223 214 206 201 201 198 200 199 201 201 202 196 201 208 206 199 199 205 213 217 186 209 216 231 247 251 234 199 190 199 233 251 256
339 338 335 336 336 321 313 316 358 33 144 267 231 209 197 183 209 200 199 197 195 203 201 197 211 208 200 199 199 214 212 222 213 212 211 241 252 290 218 249 217 219 239 216 235
343 345 345 346 336 324 316 8 44 80 237 249 220 201 193 190 192 195 198 198 191 198 199 200 213 205 204 205 202 209 214 214 221 208 231 276 224 280 287 277 302 262 41 232 191
347 346 348 338 337 18 121 91 106 308 319 51 169 172 143 196 200 193 193 195 200 199 198 212 211 206 204 209 205 216 212 217 222 218 214 230 237 257 219 196 126 303 285 218 150
346 343 339 339 62 112 103 91 14 277 139 188 137 109 164 194 207 189 190 188 186 192 216 216 217 212 210 211 217 215 211 206 230 233 242 250 244 257 268 259 249 221 251 276 276
342 338 340 356 110 110 74 76 139 205 129 118 137 186 185 185 165 188 192 194 202 183 181 229 208 242 216 214 219 217 216 197 234 206 233 221 228 245 259 253 246 243 234 251 247
340 342 356 84 99 83 172 89 224 167 120 136 153 214 142 210 172 163 195 199 218 195 182 199 201 224 221 213 219 211 224 214 212 228 207 250 266 228 224 237 247 253 255 251 257
343 358 91 122 96 103 91 221 154 169 144 108 117 228 189 152 164 187 199 210 208 203 207 193 179 231 239 212 217 221 222 214 215 222 215 217 238 266 267 244 238 242 241 243 240
346 63 144 142 142 89 196 165 159 190 201 173 157 169 181 168 173 176 163 229 218 200 208 209 198 237 251 222 209 214 229 226 223 222 223 224 260 232 256 242 237 236 232 226 222
343 142 159 156 99 196 167 196 187 204 203 190 193 181 168 196 176 193 212 225 209 188 194 203 194 212 188 242 228 215 207 222 229 230 229 232 259 272 277 233 229 224 215 222 218
235 161 164 152 146 182 139 130 254 245 230 226 213 211 202 212 193 220 234 216 212 207 207 205 178 186 239 208 182 239 223 220 203 215 224 227 251 249 259 260 229 229 224 227 229
245 181 180 164 170 169 167 169 126 102 178 200 210 211 188 204 220 212 191 245 222 215 215 198 190 197 256 224 202 187 216 235 221 212 213 213 227 244 247 249 230 226 231 227 233
247 202 192 201 186 179 190 179 188 161 141 178 186 188 199 199 188 216 204 214 236 230 215 216 211 209 211 235 227 206 211 209 218 226 226 222 254 224 236 216 226 222 224 224 231
254 226 207 193 180 143 227 219 216 231 248 252 238 224 231 227 228 233 220 222 218 218 227 221 218 245 227 229 244 236 231 238 236 229 223 218 238 213 245 261 221 219 224 223 225
Height
5880 5877 5874 5872 5870 5868 5866 5864 5863 5862 5862 5864 5865 5867 5869 5871 5874 5876 5878 5882 5882 5884 5888 5890 5894 5896 5897 5898 5898 5899 5899 5898 5902 5904 5904 5904 5904 5906 5907 5908 5907 5907 5906 5907 5906
5878 5875 5873 5870 5868 5866 5863 5862 5860 5859 5859 5859 5860 5862 5864 5867 5870 5873 5876 5878 5880 5881 5885 5888 5893 5896 5897 5899 5899 5901 5905 5902 5902 5903 5905 5905 5906 5907 5908 5908 5908 5908 5907 5908 5908
5875 5873 5870 5867 5865 5862 5860 5858 5857 5856 5855 5855 5856 5857 5860 5862 5865 5870 5872 5874 5877 5879 5881 5887 5891 5895 5896 5899 5899 5900 5900 5898 5900 5903 5904 5906 5906 5907 5908 5909 5910 5909 5909 5909 5910
5872 5869 5866 5864 5861 5858 5856 5854 5852 5851 5851 5851 5851 5852 5854 5857 5860 5864 5867 5871 5874 5876 5878 5883 5888 5892 5895 5898 5899 5899 5899 5897 5899 5903 5905 5905 5906 5907 5908 5909 5909 5910 5911 5910 5911
5868 5865 5862 5859 5855 5852 5849 5848 5846 5845 5844 5845 5846 5847 5848 5851 5856 5859 5862 5866 5870 5873 5875 5879 5884 5890 5893 5896 5898 5899 5899 5902 5903 5904 5904 5904 5906 5908 5908 5909 5910 5910 5912 5912 5912
5864 5861 5857 5853 5849 5846 5843 5842 5840 5839 5838 5838 5839 5840 5843 5844 5850 5853 5857 5861 5864 5868 5872 5875 5881 5886 5891 5895 5897 5898 5899 5900 5904 5903 5903 5900 5904 5907 5907 5908 5910 5911 5912 5913 5913
5859 5855 5850 5846 5842 5839 5836 5834 5833 5832 5831 5831 5831 5832 5835 5841 5843 5847 5852 5856 5859 5863 5868 5871 5877 5883 5889 5893 5895 5897 5899 5901 5902 5903 5902 5901 5903 5904 5904 5908 5909 5911 5912 5914 5913
5853 5849 5844 5839 5835 5830 5828 5825 5824 5822 5822 5821 5822 5824 5826 5832 5836 5840 5845 5850 5855 5858 5864 5868 5873 5880 5886 5890 5894 5896 5898 5899 5901 5901 5902 5903 5903 5902 5903 5907 5909 5911 5912 5914 5914
5847 5842 5837 5832 5827 5823 5819 5816 5814 5813 5812 5812 5814 5816 5820 5825 5828 5833 5839 5845 5850 5854 5859 5867 5872 5877 5884 5889 5892 5894 5898 5898 5900 5900 5900 5901 5900 5897 5899 5907 5909 5909 5912 5914 5915
5841 5835 5830 5825 5819 5814 5810 5807 5805 5804 5805 5806 5808 5813 5815 5819 5824 5828 5833 5840 5846 5851 5857 5862 5869 5874 5881 5884 5889 5895 5897 5898 5899 5900 5900 5899 5900 5901 5903 5907 5909 5908 5911 5913 5915
5834 5828 5822 5817 5810 5805 5802 5799 5799 5798 5797 5799 5801 5802 5808 5812 5818 5824 5828 5834 5841 5848 5853 5858 5865 5871 5879 5885 5886 5891 5892 5893 5896 5896 5899 5899 5899 5902 5903 5905 5908 5909 5910 5912 5915
5827 5821 5814 5808 5802 5797 5794 5793 5791 5792 5792 5792 5794 5798 5801 5806 5812 5818 5824 5831 5837 5845 5851 5855 5859 5870 5875 5879 5881 5888 5891 5890 5870 5894 5896 5897 5897 5900 5900 5903 5906 5909 5908 5912 5915
5820 5813 5806 5800 5793 5790 5789 5788 5787 5787 5788 5789 5790 5793 5797 5803 5808 5814 5821 5826 5833 5840 5848 5855 5862 5865 5868 5873 5880 5883 5888 5888 5890 5893 5894 5895 5897 5897 5900 5902 5903 5905 5908 5910 5915
5812 5806 5799 5793 5789 5787 5787 5786 5786 5785 5786 5787 5788 5791 5795 5799 5805 5810 5816 5824 5830 5837 5845 5852 5856 5859 5864 5873 5878 5882 5883 5882 5873 5889 5892 5894 5897 5896 5897 5900 5903 5906 5907 5910 5908
5806 5800 5793 5788 5787 5787 5787 5786 5786 5787 5791 5788 5788 5790 5793 5800 5803 5808 5814 5820 5827 5835 5842 5849 5850 5853 5862 5869 5873 5873 5878 5880 5880 5887 5890 5894 5897 5894 5893 5896 5902 5905 5908 5909 5908
5802 5796 5790 5788 5786 5786 5786 5787 5788 5790 5788 5787 5788 5790 5794 5798 5802 5806 5813 5819 5824 5831 5840 5847 5846 5853 5860 5865 5869 5870 5873 5879 5882 5887 5891 5891 5897 5890 5892 5897 5900 5905 5907 5908 5911
5799 5794 5789 5787 5786 5785 5786 5788 5787 5790 5789 5789 5789 5792 5797 5801 5802 5806 5812 5818 5825 5830 5835 5837 5843 5848 5854 5858 5865 5866 5876 5881 5885 5887 5894 5896 5899 5891 5886 5894 5898 5901 5903 5908 5909
5796 5792 5789 5787 5786 5787 5788 5791 5791 5790 5792 5792 5795 5797 5799 5804 5803 5807 5812 5818 5823 5830 5837 5840 5843 5846 5852 5859 5864 5868 5874 5884 5888 5893 5897 5892 5895 5891 5890 5896 5897 5900 5902 5905 5907
5794 5791 5788 5787 5787 5788 5790 5787 5790 5792 5791 5794 5796 5798 5800 5802 5806 5811 5814 5821 5820 5827 5838 5841 5846 5844 5849 5855 5859 5865 5868 5879 5882 5882 5886 5885 5893 5891 5892 5895 5895 5897 5900 5903 5904
5793 5790 5788 5788 5788 5789 5790 5791 5789 5790 5792 5795 5797 5797 5802 5804 5808 5812 5815 5819 5819 5822 5826 5835 5843 5841 5843 5849 5854 5860 5867 5872 5874 5880 5886 5882 5883 5883 5881 5888 5891 5893 5895 5899 5902
5792 5789 5788 5789 5789 5791 5789 5791 5789 5790 5793 5795 5797 5798 5799 5803 5806 5811 5814 5813 5815 5819 5825 5832 5838 5841 5841 5843 5851 5857 5859 5863 5874 5879 5883 5884 5885 5882 5876 5883 5886 5889 5890 5893 5897
5791 5789 5789 5789 5790 5794 5795 5790 5790 5792 5792 5794 5796 5800 5800 5803 5806 5807 5811 5812 5810 5815 5822 5827 5834 5837 5840 5842 5847 5852 5855 5861 5867 5872 5875 5878 5873 5877 5859 5875 5881 5884 5886 5889 5892
5790 5789 5790 5790 5792 5795 5791 5791 5790 5792 5791 5794 5795 5797 5798 5802 5804 5807 5804 5807 5809 5813 5817 5820 5831 5839 5836 5840 5841 5843 5852 5859 5863 5870 5873 5879 5877 5870 5871 5872 5876 5880 5882 5884 5887
5789 5789 5789 5790 5791 5796 5793 5793 5790 5789 5790 5791 5793 5795 5799 5802 5801 5803 5803 5804 5805 5808 5812 5818 5825 5830 5824 5829 5833 5840 5845 5849 5856 5864 5870 5875 5866 5867 5866 5870 5873 5876 5876 5882 5884
5788 5789 5788 5790 5791 5794 5794 5793 5791 5790 5789 5790 5791 5792 5797 5800 5801 5802 5801 5802 5803 5806 5808 5813 5817 5823 5822 5824 5828 5831 5840 5842 5846 5853 5860 5870 5862 5859 5861 5864 5867 5870 5871 5876 5878
5786 5786 5787 5787 5789 5791 5792 5792 5791 5791 5791 5791 5792 5792 5793 5794 5796 5798 5800 5802 5804 5803 5805 5808 5812 5813 5816 5820 5822 5825 5830 5834 5840 5846 5850 5854 5852 5857 5854 5838 5857 5861 5865 5870 5874
5783 5783 5784 5787 5789 5794 5794 5791 5790 5790 5790 5790 5790 5791 5791 5791 5792 5794 5794 5796 5798 5799 5805 5805 5808 5810 5814 5818 5820 5823 5825 5830 5835 5839 5842 5847 5841 5848 5841 5842 5851 5856 5858 5863 5867